"Pseudo-MPEC" for JAT11Ig

Created 2023 Mar 30 13:22:07 UT using Find_Orb

Click here for an explanation of pseudo-MPECs

 
 Astrometry: 
     JAT11Ig*!C2023 03 17N5\Astrometryec+qCUEJqc]xoCOredacted;pi5SGI9w1bUd6k!W84
     JAT11Ig !C2023 03 17T+Lw;Rve#9H!/k+YZt3[DXUh4?YYsZgYadtm;_qT-LcR1Cf,0P6ZW84
     JAT11Ig !C2023 03 17_XHY7[RLH13g_Z(D+\+X7CwXOaZYwclick:?/=x!x*MGp:4UtpT,W84
     JAT11Ig !C2023 03 1798`Q5]/eDCxu7q+TI`-T3.J'v%Ul3[RMM9XcvA(udZp!RU0!;=U(W84
     JAT11Ig |C2023 03 19%Yc!9?GLhereTyS(81EiRMda4r9D(o_y$B$^+%forQJ#Y%1arB`;807
     JAT11Ig |C2023 03 19ug%kNmcB7E7QD;sSX'*]abgsW9o=TD^362SexplanationTryEIw807
     JAT11Ig |C2023 03 19;vHT[SkCo-dB#751\sxL,X%:PX:SVUOV#^k0O4Y7R!//mE@)rU$Q807
     JAT11Ig KC2023 03 26.32728215 23 46.025+15 10 05.12   ~3Q8b 21.38GVNEOCPI52
     JAT11Ig KC2023 03 26.33194915 23 46.007+15 10 17.15   ~3Q8b 21.56GVNEOCPI52
     JAT11Ig KC2023 03 26.33661115 23 45.974+15 10 29.64   ~3Q8b 21.16GVNEOCPI52
     JAT11Ig KC2023 03 30.44324715 23 39.600+18 02 18.90   ~3UBb       VNEOCPV06
     JAT11Ig KC2023 03 30.45119315 23 39.470+18 02 39.40   ~3UBb 22.20GVNEOCPV06
     JAT11Ig KC2023 03 30.45914215 23 39.350+18 02 58.60   ~3UBb 22.80GVNEOCPV06

Station data:
(807) Cerro Tololo Observatory, La Serena  (S30.169133 W70.805900)  Chile.
   Observer R. Holmes. 0.61-m f/6.5 astrograph + CCD.
(I52) Steward Observatory, Mt. Lemmon Station  (N32.442544 W110.788920)
   US/Arizona.  Observers T. A. Pruyne, B. M. Africano, E. J. Christensen, G.
   A. Farneth, D. C. Fuls, A. R. Gibbs, A. D. Grauer, H. Gröller, J. A.
   Johnson, R. A. Kowalski, S. M. Larson, G. J. Leonard, D. Rankin, R. L.
   Seaman, F. C. Shelly, K. W. Wierzchoś. 1.0-m prime focus + CCD.
(V06) Catalina Sky Survey-Kuiper  (N32.416844 W110.732550)  US/Arizona.
   Observers T. A. Pruyne, B. M. Africano, E. J. Christensen, G. A. Farneth,
   D. C. Fuls, A. R. Gibbs, A. D. Grauer, H. Gröller, J. A. Johnson, R. A.
   Kowalski, S. M. Larson, G. J. Leonard, D. Rankin, R. L. Seaman, F. C.
   Shelly, K. W. Wierzchoś. 1.55-m reflector + CCD.
(W84) Cerro Tololo-DECam  (S30.169594 W70.806420)  Chile.  Observer F. Valdes.
    Measurer S. Deen. 4.0-m reflector + CCD.

Orbital elements:  JAT11Ig
   Perihelion 2022 Nov 23.26609 +/- 0.0832 TT =  6:23:09 (JD 2459906.76609)
Epoch 2023 Mar 30.0 TT = JDT 2460033.5   Earth MOID: 0.3630      AutoNEOCP
M  60.96647618 +/- 0.09             (J2000 ecliptic)
n   0.48105888 +/- 0.000463         Peri.  308.18669 +/- 0.06
a   1.61313440 +/- 0.00104          Node   171.60489 +/- 0.019
e   0.2037439 +/- 0.000285          Incl.   27.66385 +/- 0.021
P   2.05/748.33d           H 20.89  G  0.15   U  7.6
q 1.28446807 +/- 0.000428    Q 1.94180072 +/- 0.00168
From 13 observations 2023 Mar. 17-30; mean residual 0".33
Residuals in arcseconds: 
230317 W84  .08+  .05-    230319 807  .07-  .20-    230330 V06  .33+  .47-    
230317 W84  .13-  .01+    230319 807  .10+  .22+    230330 V06  .03-  .45+    
230317 W84  .18-  .82-    230326 I52  .38+  .28-    230330 V06  .24-  .06+    
230317 W84  .04+  .76+    230326 I52  .02+  .19-    
230319 807  .21+  .12+    230326 I52  .55-  .38+    

Ephemerides (geocentric):
Date (UTC) HH   RA             Dec           delta  r     elong  mag " sig PA
---- --------  ------------   ------------  ------ ------ -----  --- --------
2023 03 30 13  15 23 38.836   +18 06 25.48  .64536 1.5135 132.9 22.2 .169  92
2023 03 30 14  15 23 38.482   +18 08 08.17  .64539 1.5136 132.9 22.2 .175  92
2023 03 30 15  15 23 38.122   +18 09 50.82  .64541 1.5137 132.9 22.2 .180  92
2023 03 30 16  15 23 37.757   +18 11 33.43  .64544 1.5138 132.9 22.2 .185  92
2023 03 30 17  15 23 37.386   +18 13 15.99  .64547 1.5139 132.9 22.2 .191  92
2023 03 30 18  15 23 37.010   +18 14 58.51  .64549 1.5141 133.0 22.2 .196  92
2023 03 30 19  15 23 36.628   +18 16 40.99  .64552 1.5142 133.0 22.2 .202  92
2023 03 30 20  15 23 36.240   +18 18 23.42  .64555 1.5143 133.0 22.2 .207  91
2023 03 30 21  15 23 35.847   +18 20 05.81  .64558 1.5144 133.0 22.2 .213  91
2023 03 30 22  15 23 35.449   +18 21 48.16  .64561 1.5145 133.0 22.2 .219  91
2023 03 30 23  15 23 35.044   +18 23 30.46  .64563 1.5146 133.0 22.2 .224  91
2023 03 31 00  15 23 34.635   +18 25 12.71  .64566 1.5148 133.0 22.2 .230  91
2023 03 31 01  15 23 34.219   +18 26 54.92  .64569 1.5149 133.1 22.2 .236  91
2023 03 31 02  15 23 33.798   +18 28 37.09  .64572 1.5150 133.1 22.2 .242  91
2023 03 31 03  15 23 33.372   +18 30 19.21  .64575 1.5151 133.1 22.2 .247  91
2023 03 31 04  15 23 32.940   +18 32 01.29  .64578 1.5152 133.1 22.2 .253  91
2023 03 31 05  15 23 32.502   +18 33 43.32  .64581 1.5154 133.1 22.2 .259  91
2023 03 31 06  15 23 32.059   +18 35 25.30  .64584 1.5155 133.1 22.2 .265  91
2023 03 31 07  15 23 31.611   +18 37 07.24  .64588 1.5156 133.1 22.2 .271  91
2023 03 31 08  15 23 31.156   +18 38 49.14  .64591 1.5157 133.2 22.2 .277  90
2023 03 31 09  15 23 30.697   +18 40 30.98  .64594 1.5158 133.2 22.2 .283  90
2023 03 31 10  15 23 30.232   +18 42 12.79  .64597 1.5159 133.2 22.2 .289  90
2023 03 31 11  15 23 29.761   +18 43 54.54  .64600 1.5161 133.2 22.2 .295  90
2023 03 31 12  15 23 29.285   +18 45 36.25  .64604 1.5162 133.2 22.2 .301  90
2023 03 31 13  15 23 28.803   +18 47 17.91  .64607 1.5163 133.2 22.2 .307  90
2023 03 31 14  15 23 28.315   +18 48 59.52  .64610 1.5164 133.2 22.2 .313  90
2023 03 31 15  15 23 27.823   +18 50 41.09  .64614 1.5165 133.3 22.2 .319  90
2023 03 31 16  15 23 27.324   +18 52 22.61  .64617 1.5166 133.3 22.2 .325  90
2023 03 31 17  15 23 26.820   +18 54 04.08  .64621 1.5168 133.3 22.2 .332  90
2023 03 31 18  15 23 26.311   +18 55 45.50  .64624 1.5169 133.3 22.2 .338  90
2023 03 31 19  15 23 25.796   +18 57 26.88  .64628 1.5170 133.3 22.2 .344  90
2023 03 31 20  15 23 25.276   +18 59 08.21  .64631 1.5171 133.3 22.2 .351  90
2023 03 31 21  15 23 24.750   +19 00 49.49  .64635 1.5172 133.3 22.2 .357  90
2023 03 31 22  15 23 24.219   +19 02 30.72  .64638 1.5173 133.4 22.2 .363  90
2023 03 31 23  15 23 23.682   +19 04 11.90  .64642 1.5175 133.4 22.2 .370  90
2023 04 01 00  15 23 23.139   +19 05 53.04  .64646 1.5176 133.4 22.2 .376  90
2023 04 01 01  15 23 22.591   +19 07 34.12  .64649 1.5177 133.4 22.2 .383  89
2023 04 01 02  15 23 22.038   +19 09 15.16  .64653 1.5178 133.4 22.2 .389  89
2023 04 01 03  15 23 21.479   +19 10 56.14  .64657 1.5179 133.4 22.2 .396  89
2023 04 01 04  15 23 20.915   +19 12 37.08  .64661 1.5180 133.4 22.2 .402  89
2023 04 01 05  15 23 20.345   +19 14 17.97  .64664 1.5182 133.5 22.2 .409  89
2023 04 01 06  15 23 19.770   +19 15 58.81  .64668 1.5183 133.5 22.2 .415  89
2023 04 01 07  15 23 19.189   +19 17 39.59  .64672 1.5184 133.5 22.2 .422  89
2023 04 01 08  15 23 18.603   +19 19 20.33  .64676 1.5185 133.5 22.2 .429  89
2023 04 01 09  15 23 18.011   +19 21 01.02  .64680 1.5186 133.5 22.2 .436  89
2023 04 01 10  15 23 17.414   +19 22 41.65  .64684 1.5187 133.5 22.2 .442  89
2023 04 01 11  15 23 16.811   +19 24 22.24  .64688 1.5189 133.5 22.2 .449  89
2023 04 01 12  15 23 16.203   +19 26 02.77  .64692 1.5190 133.5 22.2 .456  89